Terminal Aerodrome Forecast
Issued by NWS

Home | Current Version | Previous Version | Text Only | Print | Product List | Glossary On
Versions: 1 2 3 4 5 6 7 8 9 10 11 12
000
FTUS42 TJSJ 242327
TAFKPK
TAF
TKPK 242327Z 2500/2524 07010KT P6SM VCSH SCT020 SCT035
     FM251300 08013KT P6SM FEW022
      AMD NOT SKED 2502/2511=

USA.gov is the U.S. government's official web portal to all federal, state and local government web resources and services.